Temp_Advection
nan nan nan nan nan nan nan nan nan nan nan nan nan nan nan nan nan nan nan nan nan nan nan nan nan nan nan nan nan nan nan nan nan nan nan nan nan nan nan nan nan nan nan nan nan nan nan nan nan nan nan nan nan nan nan nan nan nan nan nan nan nan nan nan nan nan nan nan nan
nan 1 1 1 1 1 1 1 1 0 0 0 0 0 0 0 0 -0 -0 -0 -0 0 0 0 0 0 0 0 0 0 0 0 0 0 0 0 0 0 1 1 0 0 0 0 1 1 0 0 0 -0 -0 -0 0 1 2 1 0 0 1 1 1 1 1 -0 -0 0 0 0 nan
nan 1 1 1 1 1 1 0 0 -0 0 0 0 0 0 0 -0 -0 -0 0 0 0 0 0 0 0 0 0 0 0 0 0 0 0 0 0 0 0 0 0 0 -0 0 0 1 1 0 0 0 -0 -0 0 1 2 1 0 0 0 1 1 2 1 1 0 1 1 1 0 nan
nan 1 1 0 0 0 0 -0 -0 0 0 0 0 0 0 0 -0 -0 -0 0 0 0 0 0 0 0 0 0 0 0 0 0 0 0 0 0 0 0 0 0 0 0 0 1 0 0 0 0 0 0 -0 0 2 2 1 0 0 -0 1 1 1 2 1 1 1 1 0 -0 nan
nan 1 0 0 0 0 0 0 0 0 0 0 0 0 0 0 -0 -0 0 0 0 0 0 0 0 0 0 0 0 0 0 0 0 0 0 0 0 0 -0 -0 0 0 0 0 0 0 0 0 0 -0 -0 1 2 2 1 0 -0 0 0 1 1 2 2 1 1 1 -0 -1 nan
nan 0 0 0 0 0 0 0 0 0 0 0 0 0 0 -0 -0 0 0 0 0 0 0 0 -0 -0 -0 0 0 0 0 0 0 0 0 0 -0 -0 0 0 0 0 0 0 0 -0 -0 -0 0 1 1 1 2 1 1 0 0 0 0 1 1 1 1 1 1 0 -0 -1 nan
nan 1 1 0 0 0 0 0 0 0 0 0 0 0 -0 -0 0 0 0 0 0 0 0 -0 -0 -0 0 0 1 0 0 0 0 0 0 -0 -0 0 0 0 0 -0 0 0 -0 -0 0 1 1 1 1 1 1 0 -0 0 1 1 1 1 1 1 1 1 1 1 0 -0 nan
nan 1 1 0 0 0 0 0 0 0 0 0 -0 -0 -0 0 0 0 0 0 0 0 -0 -0 -0 0 1 1 0 0 0 0 0 0 0 0 -0 0 0 0 0 0 -0 -0 -0 1 1 1 1 1 0 -0 -0 -0 -0 0 1 1 1 1 1 1 1 1 1 1 1 0 nan
nan 1 1 1 0 0 0 0 0 0 0 0 -0 -0 0 0 0 0 0 0 0 -0 -0 0 0 1 1 0 0 -0 -0 0 0 0 0 0 -0 0 0 0 0 0 -0 -0 -0 0 0 1 0 -0 -0 -0 -0 -0 1 1 1 1 1 1 1 1 0 1 1 1 1 1 nan
nan 1 1 0 0 0 0 0 0 0 0 0 0 0 0 0 0 0 0 -0 -0 -0 0 1 1 0 0 0 -0 -0 0 0 0 0 0 0 0 0 0 0 -0 -0 0 0 0 -0 -0 0 -0 -0 -0 0 1 1 2 1 1 0 0 0 0 0 0 0 1 1 1 1 nan
nan 0 0 0 0 0 0 0 0 0 0 0 0 0 0 0 0 0 -0 -0 -0 0 1 1 0 0 -0 0 0 0 0 0 0 0 0 0 0 -0 -0 -0 -0 -0 0 0 0 -0 -0 -0 -0 -0 -0 0 1 1 1 0 0 0 0 0 0 0 0 0 1 1 1 1 nan
nan 0 0 0 0 0 0 0 0 0 0 0 0 0 0 0 0 -0 -0 -0 0 1 1 0 0 -0 0 0 0 0 -0 -0 0 0 0 0 0 0 -0 0 0 0 0 0 0 -0 -0 -0 -0 -0 -0 -0 0 0 -0 -0 0 0 0 0 0 0 0 1 1 0 1 1 nan
nan 0 0 0 0 0 0 0 0 0 0 0 0 0 0 0 0 0 0 0 0 0 0 0 0 0 0 0 0 -0 -0 -0 0 0 0 0 0 0 0 0 1 0 0 -0 -0 -0 -0 0 0 0 -0 0 -0 -0 -0 -0 -0 -0 0 0 0 0 0 1 1 0 1 1 nan
nan 0 0 0 0 0 0 0 0 0 0 0 0 0 0 0 0 0 0 0 0 0 0 0 0 0 0 0 -0 -0 0 0 0 0 0 0 0 0 0 1 1 0 -0 -0 -0 -0 -0 0 0 0 0 0 0 0 -0 -0 -0 -0 -0 0 0 0 1 1 1 1 1 1 nan
nan 0 0 0 0 0 0 0 0 0 0 0 0 0 0 0 0 0 0 0 0 0 0 0 0 0 0 -0 0 0 0 0 0 0 0 0 0 0 0 0 0 -0 -0 -0 -0 -0 0 0 0 0 0 0 0 0 0 0 0 -0 -0 -0 0 0 0 0 1 1 1 1 nan
nan 0 0 0 0 0 0 0 0 0 0 0 0 0 -0 -0 -0 0 0 0 0 0 0 0 0 0 0 0 0 0 0 0 0 0 0 -0 -0 0 0 0 0 -0 -0 -0 -0 0 0 0 0 0 0 0 0 0 0 0 0 0 0 0 0 0 -0 0 1 1 1 1 nan
nan -0 -0 -0 -0 -0 -0 -0 -0 -0 -0 -0 -0 -0 -0 0 0 0 0 0 0 0 0 0 0 0 0 0 0 0 -0 -0 -0 0 0 0 0 0 0 0 0 0 -0 -0 0 0 0 0 0 0 0 0 0 0 0 0 0 0 0 0 0 0 -0 0 0 1 1 1 nan
nan -0 -0 -0 -0 -0 -0 -0 -0 -0 -0 -0 -0 -0 0 0 0 0 0 0 0 0 0 0 0 0 0 0 -0 -0 -0 -0 0 0 0 0 0 0 0 0 0 0 0 0 0 0 0 0 0 0 0 0 -0 0 0 0 0 0 0 0 0 0 0 0 0 0 0 0 nan
nan 0 -0 -0 -0 -0 -0 -0 -0 -0 -0 -0 -0 0 0 0 0 0 0 0 0 0 0 0 0 0 0 -0 -0 -0 0 0 0 0 0 1 0 0 0 0 -0 -0 -0 0 0 0 0 0 0 0 0 0 0 0 0 0 0 0 0 0 0 0 0 0 0 0 0 0 nan
nan 0 -0 -0 -0 -0 -0 -0 0 0 0 0 0 0 0 0 0 0 0 0 0 1 1 0 0 0 -0 -0 -0 0 0 0 0 0 0 0 0 0 -0 -0 -0 -0 0 0 0 0 0 0 0 0 0 0 0 0 -0 0 0 0 0 0 0 0 0 0 1 1 1 1 nan
nan 0 0 0 0 0 0 0 0 0 0 0 0 0 0 0 0 0 0 0 1 0 0 0 -0 -0 -0 -0 0 0 0 0 0 0 0 -0 -0 -0 -0 -0 0 0 0 0 0 0 0 0 0 0 0 -0 0 -0 -0 -0 -0 0 0 0 1 1 1 1 1 1 1 1 nan
nan 0 0 0 0 0 0 0 0 0 0 0 0 0 0 0 0 0 1 1 0 0 -0 -0 -0 -0 -0 0 0 0 0 0 0 -0 -0 -0 -0 -0 0 0 0 0 0 0 0 0 0 0 0 0 0 0 -0 -0 -0 -0 -0 0 0 1 1 1 1 1 1 1 1 1 nan
nan 0 0 0 0 0 0 0 0 0 0 0 0 0 0 0 0 0 0 0 0 -0 -0 -1 -0 -0 0 0 0 0 0 0 -0 -0 -0 -0 0 0 0 0 0 0 0 0 0 -0 -0 0 0 0 0 0 -0 -0 -0 -0 0 0 1 1 1 1 1 1 1 1 1 1 nan
nan 0 0 0 0 0 0 0 0 0 0 0 0 0 0 0 0 0 0 0 0 -0 -1 -0 0 0 1 0 0 0 0 0 0 -0 -0 0 0 0 0 0 1 0 0 -0 -0 0 0 0 0 0 0 -0 -0 -0 -0 -0 0 0 0 1 1 1 1 1 1 1 1 1 nan
nan 0 0 0 0 0 0 0 0 0 0 0 0 0 0 0 0 0 0 -0 -0 -0 -0 0 1 1 1 0 1 0 0 0 0 0 0 0 0 0 0 0 0 0 0 0 0 0 0 0 0 0 0 -0 -0 -0 -0 -0 0 0 1 1 1 1 1 1 1 1 1 1 nan
nan 0 0 0 0 0 0 0 0 0 0 0 0 0 0 0 0 -0 -0 -1 -1 -0 0 1 1 1 0 0 0 0 0 0 0 0 0 0 0 0 0 0 1 0 0 0 0 0 0 0 0 0 0 -0 -0 -0 -0 -0 0 1 1 1 1 1 1 1 1 1 1 1 nan
nan -0 0 0 0 0 0 0 0 0 0 0 -0 -0 -0 -0 -0 -0 -0 -0 -0 0 0 0 0 0 0 0 0 0 0 0 0 0 0 0 0 0 1 1 1 0 0 0 0 0 -0 -0 0 0 0 -0 -0 -0 -0 0 0 0 1 0 1 1 1 1 1 1 1 1 nan
nan 0 0 0 -0 0 0 0 0 0 0 -0 -0 -0 -0 -0 -0 -0 -0 0 0 0 0 0 0 0 0 0 0 0 0 0 0 0 0 0 0 0 1 1 1 1 0 -0 -0 -0 -0 -0 -0 0 0 0 -0 -0 -0 -0 0 0 1 1 1 1 1 1 1 1 0 0 nan
nan 0 -0 -0 -0 -0 -0 -0 -0 -0 -0 -0 -0 -0 -0 -0 -0 -0 -0 -0 -0 -0 0 0 0 0 0 0 0 0 0 0 0 0 0 0 0 0 1 1 1 1 0 -0 -0 -0 -0 -0 -0 -0 0 0 0 0 -0 0 0 0 1 1 1 1 1 1 0 0 -0 -1 nan
nan -0 -0 -0 -0 -0 -0 -0 -0 -0 -0 -0 -0 -0 -0 -0 -0 -0 -0 0 0 0 1 1 1 1 0 0 0 0 0 0 0 0 0 0 0 0 1 1 1 1 0 -0 -0 -0 -1 -0 -0 -0 0 0 0 0 0 0 0 1 1 1 1 1 1 0 -0 -0 -1 -1 nan
nan -0 -0 -0 -0 -0 -0 -0 -0 -0 -0 -0 -0 -0 -0 -0 0 0 0 0 0 0 1 1 0 0 0 -0 0 0 0 0 0 0 0 0 0 0 1 1 1 1 0 -0 -0 -1 -1 -1 -0 -0 0 0 0 0 0 0 1 1 1 1 1 0 0 -0 -0 -1 -1 -1 nan
nan -0 -0 -0 -0 -0 -0 -0 -0 -0 -0 0 0 0 0 0 0 0 0 0 0 0 0 0 0 -0 -0 -0 -0 0 0 0 0 0 0 0 0 0 1 1 1 1 0 -0 -0 -0 -1 -1 -0 -0 0 0 0 0 0 1 1 1 1 0 0 -0 -0 -0 -1 -0 -0 -0 nan
nan -0 -0 -0 -0 -0 -0 -0 -0 -0 0 0 0 0 0 0 0 0 0 0 0 -0 -0 -0 -0 -0 -0 -0 -0 0 0 0 0 0 0 0 0 0 0 1 1 1 0 0 -0 -0 -1 -1 -0 -0 0 0 0 0 1 1 1 1 0 0 -0 -0 -0 -1 -0 -0 -0 0 nan
nan -0 -0 -0 -0 -0 -0 -0 -0 -0 -0 -0 0 0 -0 -0 -0 -0 -0 -0 -0 -0 -0 -0 -0 -0 -0 0 0 0 0 0 0 0 0 0 0 0 0 1 1 1 0 0 -0 -0 -1 -1 -0 -0 0 0 1 0 0 0 0 0 -0 -0 -0 -0 -0 -0 -0 -0 0 0 nan
nan -0 -0 -0 -0 -0 -0 -0 -0 -0 -0 -0 -0 -0 -0 -0 -0 -0 -0 -0 -0 -0 -0 0 0 0 0 0 0 0 0 0 0 0 0 0 0 0 0 1 1 1 0 0 0 -0 -0 -0 -0 0 0 1 0 0 0 0 0 -0 -1 -1 -0 -0 -0 -0 0 0 0 0 nan
nan -0 -0 -0 -0 -0 -0 -0 -0 -0 -0 -0 -0 -0 -0 -0 -0 -0 -0 -0 0 0 0 0 0 0 0 0 0 0 0 0 0 0 0 0 0 0 0 0 1 1 0 0 0 -0 -0 -0 -0 0 0 0 0 0 0 0 -0 -0 -0 -0 -0 0 0 0 0 0 0 0 nan
nan 0 0 0 -0 -0 -0 -0 -0 -0 -0 -0 -0 -0 -0 -0 -0 -0 -0 0 0 0 0 0 0 0 0 0 0 0 0 0 0 0 0 0 0 0 0 1 0 0 0 0 0 -0 -0 -0 -0 0 0 0 0 0 0 -0 -0 -0 -0 0 0 0 0 0 0 0 0 0 nan
nan 0 0 0 -0 -0 -0 -0 -0 -0 -0 -0 -0 -0 -0 -0 0 0 0 0 0 0 0 0 0 0 0 0 0 0 0 0 0 0 0 0 0 0 0 0 0 0 0 0 0 -0 -0 -0 0 0 0 0 0 -0 -0 -0 -0 0 0 0 0 0 0 0 0 0 0 0 nan
nan -0 -0 -0 -0 -0 -0 -0 -0 -0 -0 -0 -0 -0 -0 0 0 0 0 0 0 0 0 0 1 0 0 0 0 0 0 0 0 0 0 0 0 0 0 0 0 0 0 0 -0 -0 -0 -0 0 0 0 0 -0 -0 -0 -0 0 0 0 0 0 0 0 0 0 0 0 0 nan
nan -0 -0 -0 -0 -0 -0 -0 -0 -0 -0 -0 0 0 0 0 0 0 0 0 0 0 0 0 0 0 0 0 0 0 0 0 0 0 0 0 0 0 0 0 0 0 0 -0 -0 -0 -0 0 0 0 0 -0 -0 -0 -0 -0 -0 0 0 0 0 0 0 0 0 0 0 0 nan
nan nan nan nan nan nan nan nan nan nan nan nan nan nan nan nan nan nan nan nan nan nan nan nan nan nan nan nan nan nan nan nan nan nan nan nan nan nan nan nan nan nan nan nan nan nan nan nan nan nan nan nan nan nan nan nan nan nan nan nan nan nan nan nan nan nan nan nan nan
Wind_Speed
31 32 33 33 33 33 33 33 32 31 30 29 28 27 26 25 24 23 22 20 19 17 15 14 13 13 13 13 13 14 14 15 16 18 20 21 22 23 25 26 27 27 27 27 27 28 28 28 27 27 28 29 31 35 37 37 35 32 31 30 30 28 28 29 29 28 27 27 26
30 31 32 33 33 33 33 33 32 32 30 29 28 27 26 25 24 23 21 20 18 17 15 14 13 13 13 13 13 13 14 14 15 17 18 20 21 23 25 27 27 26 26 27 28 29 29 28 27 27 27 30 33 36 37 35 33 32 31 30 29 28 28 29 29 28 27 27 27
29 30 31 32 32 33 33 32 32 31 30 29 27 26 26 25 24 22 21 19 17 16 15 14 12 12 12 12 12 13 13 13 14 15 17 18 20 22 24 25 25 25 26 28 30 30 29 27 26 26 27 30 34 35 35 33 32 31 31 30 29 29 29 29 29 28 27 27 27
28 30 31 31 32 32 31 31 31 30 29 28 27 26 25 24 23 21 20 18 16 15 14 12 11 10 11 11 12 13 13 13 13 14 16 17 19 20 22 23 24 26 28 30 31 31 29 27 26 27 28 31 34 35 33 31 30 30 31 30 29 29 29 30 29 28 27 27 28
28 29 30 30 30 29 29 29 28 28 27 27 26 25 25 24 22 20 19 18 16 15 13 11 11 10 10 11 12 12 13 13 13 14 15 16 17 17 19 21 23 26 27 28 28 26 25 24 25 26 29 32 34 34 32 30 30 30 30 30 30 30 30 31 30 29 28 28 28
26 28 29 29 29 29 28 27 25 25 25 25 25 25 24 22 21 19 18 17 15 14 12 11 11 10 10 10 11 12 13 14 14 13 13 13 14 15 16 18 20 22 23 22 20 19 18 19 21 25 29 32 33 33 31 30 29 29 29 29 29 30 30 31 30 29 28 28 28
24 26 27 28 28 27 26 25 24 24 24 24 23 22 21 19 17 16 15 14 13 12 12 11 10 10 10 10 11 12 13 13 13 12 12 12 13 14 15 15 15 16 16 17 17 18 19 21 24 27 30 30 30 29 29 29 28 28 28 28 28 29 30 30 30 29 29 28 28
22 24 25 26 26 25 24 24 23 23 23 22 21 20 18 16 15 13 12 12 11 11 10 10 10 11 12 12 11 11 10 11 11 11 12 13 14 15 14 13 12 13 14 17 20 23 25 26 27 27 27 26 25 25 27 28 28 28 27 27 27 27 28 30 30 29 29 29 29
22 23 24 25 25 24 23 22 21 21 21 20 19 17 15 14 13 12 11 11 10 9 9 10 11 13 13 12 9 8 8 9 10 11 11 11 12 13 13 12 12 12 13 15 18 21 23 24 23 22 21 22 24 26 27 28 28 27 26 26 26 26 27 29 29 30 30 31 32
22 22 23 24 24 23 23 22 21 20 19 18 17 15 14 13 13 12 11 10 10 10 11 12 13 13 11 9 7 7 9 10 10 9 9 9 9 9 9 9 10 11 12 12 14 16 19 21 21 22 23 24 26 28 28 27 26 26 25 25 25 26 27 28 29 30 31 33 34
20 21 21 22 22 22 22 22 21 20 19 17 16 15 14 13 13 12 11 10 11 11 12 13 12 10 8 7 7 8 9 9 9 8 7 7 7 8 8 9 11 12 13 13 13 14 16 18 20 22 24 26 27 27 26 25 24 23 23 23 24 25 26 27 29 30 31 33 34
19 19 19 19 20 20 20 20 20 20 19 17 16 15 14 13 12 11 11 11 12 12 12 11 9 7 6 7 8 8 8 8 7 7 8 8 9 9 9 10 11 11 11 11 11 11 12 13 15 17 20 22 24 24 24 22 21 21 21 22 23 24 25 27 29 30 31 32 34
17 18 18 18 18 18 18 18 19 19 18 17 16 14 13 12 12 11 12 12 12 12 10 8 7 7 7 8 7 7 7 8 8 9 9 9 9 9 10 11 11 10 9 9 9 10 10 10 11 12 14 16 18 20 21 21 21 20 21 21 22 23 24 26 28 29 31 32 33
17 17 17 17 17 17 17 17 17 17 17 16 15 14 13 12 12 12 12 12 11 9 8 7 7 8 7 7 7 8 8 9 9 8 8 7 8 9 10 12 13 13 12 12 11 12 12 11 10 10 10 11 12 14 16 18 19 20 21 21 22 23 24 25 27 28 30 32 33
17 16 16 16 16 16 16 16 15 15 15 15 14 14 14 13 13 13 12 11 9 8 8 8 7 7 7 7 8 8 9 8 7 7 6 7 9 10 11 13 15 16 16 14 13 13 14 14 12 11 9 8 8 9 11 13 15 17 19 20 22 23 24 25 26 27 29 31 32
17 16 16 16 16 16 16 15 14 14 14 13 13 13 13 13 13 12 11 10 9 8 7 7 6 6 7 7 7 7 7 7 7 8 8 9 10 10 11 11 13 14 14 13 13 13 14 15 14 13 11 9 8 7 8 10 12 14 15 17 19 21 23 24 25 26 28 30 32
17 17 17 16 16 16 15 15 14 14 13 13 13 13 12 12 11 10 9 8 8 7 7 7 7 7 6 6 6 6 6 7 9 10 11 11 10 9 8 8 9 10 11 11 12 13 14 15 15 15 13 11 10 8 8 9 10 12 13 15 16 18 20 22 23 24 26 28 30
17 17 17 17 16 16 15 15 14 14 13 13 12 12 12 11 10 9 8 8 8 7 7 7 7 7 7 7 6 6 7 8 9 10 10 10 9 8 7 7 8 10 11 12 13 14 14 15 16 17 16 15 13 11 10 9 9 10 11 13 14 15 17 18 20 21 23 25 27
17 17 17 17 16 16 16 15 15 14 14 13 13 12 12 11 10 9 8 8 8 8 7 8 8 8 8 8 7 7 8 7 7 8 9 10 9 9 9 9 10 11 12 13 14 15 16 16 17 17 17 17 16 15 13 12 11 11 11 12 13 13 14 15 17 19 20 22 23
17 17 17 17 17 17 16 16 16 15 15 14 14 13 12 11 10 9 9 8 8 8 9 9 9 9 8 8 8 7 7 6 6 7 8 9 9 9 10 11 11 11 11 11 11 12 13 14 15 16 17 18 18 18 17 16 15 14 14 14 13 13 14 15 16 18 19 19 20
17 17 17 17 17 17 17 17 17 16 16 15 14 13 12 11 10 10 9 9 9 10 10 10 9 9 8 8 7 6 6 7 8 8 8 9 10 11 11 11 9 8 7 7 8 9 11 12 14 15 17 18 19 19 19 19 19 18 17 16 15 14 14 15 16 17 17 17 17
18 18 18 18 18 18 18 18 17 17 16 16 15 13 12 11 11 11 11 11 11 11 11 10 9 9 8 8 7 7 8 9 9 9 9 9 10 10 10 8 7 7 8 9 10 11 12 13 14 15 16 16 17 18 19 19 20 20 19 17 15 14 14 14 15 15 15 15 15
19 19 19 19 19 19 19 18 18 17 17 16 15 14 13 13 12 12 12 12 12 12 11 10 9 9 8 8 8 8 9 10 10 9 9 9 9 8 8 8 9 11 12 13 13 13 13 13 13 13 13 14 14 15 16 17 17 17 16 15 14 14 13 13 13 13 13 14 15
19 20 20 20 19 19 19 18 18 18 17 16 15 15 15 14 14 13 13 13 13 12 11 10 9 8 8 9 9 9 10 10 10 10 9 8 7 7 8 10 11 13 14 14 14 14 14 13 12 12 11 11 12 13 14 15 15 15 15 14 14 13 12 11 11 12 13 14 15
20 20 20 20 20 19 19 19 18 18 17 17 16 16 16 15 15 14 14 13 12 11 11 10 9 9 9 9 10 10 11 11 11 10 9 9 8 8 9 10 11 12 13 13 13 14 14 14 13 12 12 11 12 12 13 14 14 14 14 14 13 12 11 10 11 12 14 15 15
20 20 20 20 20 19 19 19 18 18 18 17 17 16 16 15 15 14 13 13 12 11 11 10 9 10 10 11 11 12 12 12 11 11 10 10 10 10 10 11 11 12 12 13 13 14 14 14 14 13 13 12 12 12 12 13 14 14 14 13 13 12 11 11 11 12 14 14 15
20 20 20 20 20 20 19 19 19 18 18 17 16 16 15 15 15 14 14 13 12 12 11 11 11 12 12 12 12 12 12 12 12 11 11 11 11 11 11 12 13 13 13 13 13 14 14 14 14 14 14 13 12 11 11 12 13 13 12 12 12 11 11 11 11 12 13 14 14
20 20 20 20 20 20 19 19 19 18 17 17 16 15 15 15 15 15 14 14 13 13 13 13 13 13 13 13 13 12 12 12 12 12 12 12 12 12 12 13 14 15 15 15 14 14 14 14 14 14 14 13 12 11 11 11 12 12 12 11 12 11 11 11 11 12 13 13 14
20 20 19 19 19 19 19 19 18 18 17 17 16 15 15 15 15 15 15 14 14 14 14 14 14 14 14 14 14 13 13 13 13 14 14 13 13 13 13 13 13 14 15 15 15 14 14 14 14 13 13 12 11 10 10 11 11 11 11 11 11 11 11 12 12 12 13 14 15
19 19 19 19 19 18 18 18 17 17 17 16 16 15 15 15 15 15 15 15 15 15 15 15 15 14 15 15 15 15 15 15 15 15 15 14 14 13 13 14 14 15 15 15 15 14 14 14 13 13 12 12 11 10 10 10 10 10 10 10 11 12 12 13 13 13 14 14 15
19 18 18 18 18 18 17 17 17 17 16 16 16 15 15 15 15 15 15 15 15 15 15 15 15 15 15 15 15 15 15 16 16 16 15 15 14 14 14 14 15 15 16 16 16 15 14 14 13 12 12 11 11 10 9 9 9 9 10 11 12 13 13 13 14 14 14 14 14
18 18 17 17 17 17 17 17 17 16 16 16 16 16 16 16 16 16 16 16 15 15 15 15 15 15 15 15 15 15 15 15 16 16 15 15 14 14 15 15 15 16 16 16 16 15 15 14 12 12 11 11 10 9 9 9 9 10 11 13 13 14 14 14 14 14 14 14 14
17 17 17 16 16 16 16 16 16 16 16 16 16 16 16 16 16 15 15 15 15 15 15 15 15 15 15 15 15 14 14 15 15 15 15 15 14 14 15 15 15 16 16 16 16 15 14 13 12 11 11 10 9 9 9 9 10 11 13 14 14 14 14 14 14 14 14 14 14
15 15 15 15 15 15 15 15 15 15 15 15 15 15 15 15 15 15 15 15 15 15 15 15 15 15 15 15 14 14 14 14 14 15 15 15 14 14 14 15 15 15 15 15 15 15 14 12 11 11 10 9 8 8 9 10 11 13 14 14 14 14 14 14 14 14 15 15 15
14 14 14 14 14 14 14 14 14 14 14 14 14 14 14 14 14 14 14 14 14 14 15 15 15 15 14 14 14 14 14 14 14 14 14 14 14 14 14 14 15 15 14 14 14 13 12 11 11 10 9 8 7 8 9 10 12 13 14 14 14 13 13 13 14 14 15 15 16
13 13 13 13 13 13 13 13 13 13 13 14 14 14 14 14 14 14 14 14 14 14 14 14 14 14 14 14 14 14 14 14 14 14 14 14 14 14 14 14 14 14 13 13 12 12 11 11 10 9 8 6 7 8 9 10 12 14 14 14 13 13 13 13 14 14 15 16 16
13 13 13 13 13 13 13 12 13 13 13 13 13 13 13 13 13 13 12 13 12 12 12 13 13 13 13 13 13 13 13 14 13 13 14 14 14 13 13 14 13 13 12 11 11 11 10 10 9 8 6 5 7 8 9 11 12 13 13 13 13 13 13 13 14 15 15 16 17
13 13 13 12 12 12 12 12 12 12 12 12 12 12 12 11 11 11 11 11 11 11 11 11 11 12 12 12 12 12 12 12 12 12 12 13 13 12 12 12 12 11 10 10 10 9 9 9 8 6 5 5 7 8 9 11 12 12 13 13 13 13 13 14 14 15 16 17 18
14 13 13 12 12 12 12 12 11 11 11 11 11 10 10 10 10 9 9 9 10 10 10 10 10 10 10 10 10 10 10 10 10 10 11 11 11 11 10 10 10 9 9 8 9 9 9 8 7 5 5 6 7 9 10 11 11 12 12 13 13 13 14 14 15 15 16 17 18
14 13 13 12 12 11 11 11 11 10 10 10 9 9 9 8 8 8 8 8 8 8 8 8 8 7 7 7 7 7 7 8 8 8 8 8 9 8 8 8 8 8 8 7 8 8 8 7 6 5 6 7 8 9 10 11 11 12 12 13 13 14 14 15 15 16 17 17 18
14 13 13 12 11 11 10 10 10 9 9 8 8 7 7 7 7 7 7 6 6 6 6 5 5 5 5 5 5 5 5 5 5 6 6 6 6 6 6 6 7 7 7 7 7 7 7 6 6 6 7 8 8 9 10 11 12 12 13 14 14 14 15 15 16 16 17 17 18
Wind_Direction
231 233 235 237 238 239 241 243 244 246 247 249 250 252 254 255 257 258 260 263 264 267 270 272 273 273 271 268 265 261 260 259 257 256 255 254 253 251 250 248 247 248 249 250 251 250 250 250 251 254 257 260 262 262 261 259 255 253 251 250 247 240 232 228 230 233 236 239 242
230 233 235 237 238 240 241 242 244 245 247 249 251 253 255 256 257 259 261 263 265 268 270 272 273 274 273 271 268 265 263 262 261 260 258 256 254 252 250 248 247 248 249 251 251 251 252 254 257 260 263 266 265 263 260 258 256 253 251 249 245 238 232 229 231 234 237 240 243
230 232 234 236 237 238 239 240 242 244 246 248 250 252 254 256 257 259 262 264 266 268 270 272 273 273 272 270 267 266 264 263 263 263 263 261 259 256 253 250 247 246 247 249 250 250 251 254 258 262 266 269 268 264 261 259 257 255 254 251 246 238 232 229 230 233 237 241 244
230 231 233 235 236 238 239 241 243 245 247 248 249 251 252 254 256 258 261 263 264 265 267 269 268 266 266 268 268 267 265 263 262 263 263 263 262 260 258 254 250 246 246 247 249 251 253 256 259 263 267 269 268 266 263 260 257 257 256 254 249 241 233 228 227 230 235 240 244
229 231 233 235 237 239 242 244 245 247 249 249 250 251 252 254 256 258 260 261 262 263 263 263 261 258 259 264 269 270 267 263 259 259 260 262 263 263 262 259 256 253 251 252 254 257 260 262 264 267 268 268 267 265 263 261 258 258 258 256 252 245 238 230 226 225 230 237 243
228 231 233 236 238 240 242 244 246 247 248 249 250 251 252 254 256 258 259 261 262 263 262 259 255 252 253 259 267 270 268 264 259 257 259 261 263 263 262 263 264 263 261 259 259 259 259 261 264 266 267 267 266 265 264 262 261 260 259 256 253 248 242 235 228 225 227 234 241
228 230 233 235 237 239 241 243 244 245 247 248 249 250 252 255 256 258 259 260 261 262 259 253 247 245 248 254 263 268 269 269 266 264 262 259 257 256 257 261 266 268 266 261 255 250 249 251 257 261 264 266 267 268 268 269 267 264 261 257 253 250 246 241 234 228 226 230 238
228 231 233 235 237 238 240 242 243 244 245 247 248 250 252 253 255 255 256 256 256 254 249 242 239 243 249 255 262 267 272 273 272 269 265 260 258 258 259 261 262 263 263 263 263 260 258 258 260 263 266 269 271 272 272 272 270 267 264 259 255 251 248 244 239 233 227 228 233
225 229 232 235 236 238 240 240 241 243 244 246 247 248 249 249 250 250 250 248 245 241 237 238 244 250 256 260 264 268 270 270 269 267 265 265 266 268 267 265 260 257 260 267 275 276 273 270 270 272 274 275 274 273 271 270 268 267 265 261 256 252 249 247 244 239 233 229 230
221 225 228 231 234 237 238 239 240 241 243 245 246 246 245 245 245 244 242 238 233 232 237 244 253 259 264 268 268 266 263 263 263 264 265 265 266 267 266 264 259 256 259 268 281 287 285 282 280 280 279 277 274 272 270 269 267 266 264 261 257 254 251 249 248 244 239 234 232
217 221 224 228 231 234 236 238 239 239 240 241 242 243 242 242 240 238 234 229 227 234 243 252 259 264 268 267 265 264 264 264 263 260 256 251 249 250 253 258 261 263 266 270 277 284 288 289 288 285 281 277 274 272 270 270 268 266 264 260 257 254 253 252 251 249 245 242 239
213 217 221 225 228 231 234 236 238 238 238 238 237 238 239 238 235 232 228 226 231 240 249 257 260 259 256 256 258 261 263 261 254 247 242 239 237 238 241 247 256 265 271 272 272 275 284 293 296 293 287 281 277 274 272 271 270 268 265 261 258 255 253 253 253 252 251 249 246
208 212 216 220 223 227 229 232 235 236 237 236 233 233 233 231 227 224 225 229 236 244 251 254 252 248 247 249 250 250 250 248 245 244 241 238 234 233 236 239 245 254 261 259 254 255 265 284 299 303 298 291 285 280 277 274 272 269 267 264 261 258 255 254 254 254 254 253 249
202 205 209 213 217 220 223 227 230 232 233 232 230 228 226 224 220 221 228 235 240 243 245 245 246 246 244 241 238 238 239 241 245 247 245 240 237 237 239 242 245 246 246 243 240 241 249 264 286 302 305 298 290 284 280 277 275 273 271 268 265 262 259 257 257 256 255 252 248
196 199 202 205 209 213 216 219 222 224 226 226 224 221 219 218 219 224 232 238 238 236 235 238 243 244 240 234 231 230 231 232 233 235 236 237 240 242 244 245 246 246 245 243 242 243 247 253 271 288 297 294 286 278 275 273 273 273 273 272 270 267 264 262 260 258 255 251 246
191 193 195 198 202 205 207 210 211 213 214 215 214 213 213 215 218 224 231 234 231 228 226 228 233 234 231 226 222 218 217 217 219 224 230 236 242 242 241 240 242 244 246 246 246 247 250 253 263 275 286 290 284 273 265 262 262 265 267 269 270 270 269 267 266 263 258 251 246
186 188 189 191 194 196 198 199 200 200 201 202 202 203 205 207 210 215 219 222 220 217 216 216 218 218 213 207 207 208 213 218 223 227 231 236 243 245 241 236 238 243 248 250 251 252 254 256 261 267 275 283 286 281 269 260 257 258 261 264 267 269 270 271 271 269 263 257 252
182 183 184 185 186 187 187 187 187 188 188 189 190 191 193 196 199 202 205 207 207 207 207 207 204 201 198 198 206 216 223 224 224 224 226 232 240 244 244 244 246 251 254 256 258 258 259 260 262 264 268 274 279 282 279 271 264 260 261 262 264 266 268 270 272 271 268 265 262
178 178 178 178 178 178 177 177 177 177 177 177 178 179 183 189 191 192 194 197 199 199 196 193 191 190 193 200 210 222 229 228 222 219 221 227 234 240 244 247 250 252 253 254 255 257 259 260 262 263 265 268 272 277 280 280 276 270 266 263 261 261 262 264 266 267 267 267 267
175 174 173 172 170 170 170 169 169 169 169 169 169 172 176 182 186 187 188 189 191 191 190 188 184 184 190 201 212 219 223 222 219 218 221 227 233 238 243 246 247 247 247 246 246 249 253 256 260 263 265 267 270 273 276 278 278 276 271 265 259 255 254 256 258 260 262 262 261
170 169 167 166 165 164 165 165 165 165 165 165 166 167 171 178 182 184 183 183 185 186 186 184 182 185 193 205 209 207 207 212 216 219 222 228 233 239 243 245 246 245 244 244 246 248 251 255 259 261 264 265 267 268 270 271 273 272 269 264 258 253 250 250 252 254 256 255 250
166 165 163 162 162 162 162 162 163 163 163 164 165 167 171 177 180 182 182 182 183 182 181 180 184 193 201 205 203 200 202 207 210 214 221 230 237 241 244 245 246 249 252 254 255 255 254 255 255 256 256 257 259 260 262 263 265 265 263 260 255 251 248 248 248 249 248 244 234
163 163 162 161 161 161 161 162 162 163 164 165 167 170 172 175 178 181 182 183 181 179 179 185 197 203 204 203 201 203 204 206 207 212 223 235 241 243 243 243 244 246 249 251 253 254 255 255 253 252 251 251 253 255 258 260 261 262 261 259 254 249 246 246 246 244 239 230 220
163 162 162 161 161 161 162 162 163 164 166 167 171 174 175 173 177 180 182 181 180 180 187 200 206 205 201 200 202 204 205 206 209 217 229 239 241 239 237 237 239 240 242 245 248 251 254 257 257 257 255 255 256 259 262 264 266 266 264 260 255 249 244 243 242 237 229 219 209
164 163 163 162 162 163 164 164 166 167 168 171 175 177 176 174 176 179 180 180 181 188 199 205 202 198 197 200 205 208 208 207 212 222 235 243 241 238 236 235 235 236 239 241 245 249 253 257 261 262 263 262 262 263 266 269 270 268 264 259 254 248 243 238 234 228 220 209 201
166 165 165 165 165 165 166 167 168 169 171 174 178 178 176 174 175 178 181 184 190 197 200 197 194 196 201 207 212 214 214 212 216 226 237 242 242 240 239 238 238 239 241 244 247 251 255 259 262 266 268 268 267 267 270 272 271 269 264 258 253 247 239 230 222 215 208 200 196
169 168 168 168 168 168 169 169 170 172 174 176 178 177 174 172 175 179 184 190 195 198 198 195 196 200 206 212 216 217 216 215 220 228 235 238 239 239 240 242 244 246 248 250 252 255 258 261 264 268 271 272 272 271 272 273 273 270 265 258 251 242 231 218 209 202 197 195 197
171 171 171 171 171 171 172 173 173 174 175 177 177 176 175 175 178 183 188 193 196 198 200 201 202 204 207 210 213 215 215 217 222 228 232 235 236 237 239 242 246 250 252 254 256 258 260 262 264 268 271 273 273 272 272 273 273 271 264 255 244 231 216 202 195 191 190 194 202
174 174 174 174 174 175 175 176 177 178 179 179 180 180 181 183 186 189 193 196 198 200 202 203 204 204 204 206 209 210 213 217 223 228 232 235 237 237 239 242 245 250 254 257 258 259 261 262 265 268 272 274 274 273 271 271 270 266 257 244 229 213 198 187 182 185 192 201 210
176 177 177 178 178 179 179 180 181 182 183 184 185 187 188 190 192 195 197 199 201 202 203 204 205 205 206 208 209 211 214 219 225 229 233 236 238 239 241 244 247 252 257 259 260 261 262 263 265 268 273 276 277 274 269 266 262 254 239 222 207 192 182 178 182 190 201 210 215
178 179 180 181 182 183 183 184 185 186 188 189 190 192 194 195 196 198 200 201 202 204 205 206 207 209 211 214 216 218 221 225 228 231 233 235 238 240 242 245 248 253 258 262 264 264 264 265 266 270 274 278 278 272 264 256 247 232 215 199 188 181 180 183 191 200 207 212 213
181 182 184 185 186 186 187 188 189 190 191 192 194 195 197 197 199 200 202 203 205 207 208 210 212 215 218 221 223 226 230 233 237 238 238 238 238 240 242 245 248 253 259 265 267 267 266 266 268 271 275 277 274 266 254 242 228 213 200 189 184 184 186 192 197 202 204 205 203
184 186 187 189 190 190 191 191 192 193 194 195 197 198 199 200 202 204 206 208 209 211 213 215 218 220 223 226 229 232 236 239 244 247 248 246 243 242 242 244 247 253 260 266 269 270 269 267 268 271 274 273 266 254 241 229 215 203 193 189 188 190 193 195 197 197 196 195 194
188 190 191 193 194 194 195 195 195 196 197 198 199 201 203 204 206 208 210 213 215 218 220 223 225 227 230 233 235 237 240 243 247 251 254 254 251 247 245 243 247 253 259 265 270 271 269 267 268 271 271 266 253 240 228 217 206 197 192 191 193 195 195 195 195 193 192 191 193
192 193 195 196 197 197 197 198 198 199 200 201 203 204 206 208 210 212 215 219 222 224 227 230 232 235 237 240 242 243 244 246 248 251 254 256 256 255 251 248 249 253 259 264 270 271 269 266 268 270 268 256 239 226 216 208 200 196 194 195 197 197 196 195 194 193 193 194 197
193 194 196 196 196 197 198 198 199 200 202 204 206 207 209 212 214 217 221 224 227 230 232 235 238 240 242 244 246 248 249 251 253 255 257 259 259 258 257 256 254 255 259 265 269 269 267 265 267 268 263 244 224 214 208 203 198 197 197 198 199 198 196 196 196 196 198 200 205
191 192 193 193 193 194 195 196 198 200 203 205 207 208 211 213 216 220 225 229 231 234 237 240 243 245 247 249 251 253 256 258 259 260 261 262 262 261 260 260 259 259 261 266 268 267 264 264 265 264 253 226 210 204 202 199 198 198 198 198 198 198 198 199 200 202 205 209 214
186 186 187 187 188 189 190 193 196 199 202 204 206 209 212 216 219 223 228 232 235 239 242 245 248 250 253 256 258 260 262 263 264 264 265 265 265 263 262 261 262 263 266 269 268 265 262 261 261 255 234 207 199 197 196 196 197 197 198 199 200 201 203 205 207 210 214 218 222
182 181 181 182 183 185 187 190 194 197 200 203 205 209 213 217 221 226 231 236 240 243 247 251 253 256 259 262 264 266 267 267 268 269 269 268 267 266 264 263 265 268 271 271 268 264 260 258 253 238 213 197 193 193 193 194 195 197 199 201 203 206 209 213 216 220 224 227 231
179 177 177 178 180 182 186 188 191 194 197 202 206 209 214 219 223 229 234 239 243 247 251 255 258 262 265 268 270 271 272 273 273 272 272 270 269 268 268 270 273 276 276 273 268 263 259 254 242 220 202 195 192 192 193 195 197 199 202 205 208 212 216 220 225 229 233 237 240
176 175 175 176 178 181 185 188 190 192 196 200 204 209 214 220 225 230 236 240 245 250 256 260 265 269 272 275 277 278 279 278 278 277 274 272 270 271 274 279 281 280 276 271 266 262 257 249 231 213 201 196 194 195 196 198 201 204 208 211 214 218 223 228 232 237 242 246 250
Height
1479 1480 1481 1482 1483 1484 1485 1487 1488 1490 1492 1493 1494 1496 1497 1499 1500 1502 1503 1504 1506 1507 1508 1509 1510 1511 1512 1512 1513 1514 1514 1515 1516 1517 1517 1518 1518 1519 1520 1520 1521 1522 1523 1523 1524 1524 1525 1526 1526 1527 1527 1528 1528 1528 1527 1527 1528 1529 1529 1530 1530 1531 1532 1532 1533 1534 1535 1536 1537
1477 1479 1480 1481 1482 1483 1484 1486 1487 1489 1490 1492 1494 1495 1496 1498 1499 1500 1502 1503 1504 1505 1507 1507 1508 1509 1510 1511 1512 1512 1513 1514 1514 1515 1515 1516 1517 1517 1517 1518 1519 1520 1521 1522 1522 1522 1523 1524 1525 1525 1526 1526 1526 1526 1525 1526 1526 1527 1527 1528 1528 1529 1530 1531 1532 1532 1533 1534 1535
1476 1477 1478 1480 1481 1482 1483 1485 1486 1488 1489 1491 1492 1494 1495 1497 1498 1499 1501 1502 1503 1504 1505 1506 1507 1508 1509 1509 1510 1511 1512 1512 1513 1513 1514 1514 1515 1515 1515 1516 1517 1519 1519 1520 1520 1520 1521 1522 1523 1524 1524 1524 1524 1523 1524 1525 1525 1526 1526 1527 1527 1527 1528 1529 1530 1531 1532 1533 1533
1475 1476 1477 1478 1479 1481 1482 1483 1485 1487 1489 1490 1492 1493 1494 1496 1497 1498 1500 1501 1502 1503 1504 1505 1506 1507 1508 1508 1509 1510 1510 1511 1512 1512 1512 1513 1513 1513 1514 1515 1515 1516 1517 1517 1518 1518 1519 1520 1521 1522 1522 1522 1522 1522 1522 1523 1523 1524 1524 1525 1525 1526 1526 1527 1528 1529 1530 1531 1532
1474 1475 1476 1477 1478 1480 1481 1483 1485 1486 1488 1489 1491 1492 1493 1495 1496 1497 1499 1500 1501 1502 1503 1504 1505 1506 1507 1507 1507 1508 1509 1510 1510 1511 1511 1512 1512 1512 1512 1513 1513 1514 1515 1515 1516 1517 1518 1519 1519 1520 1520 1520 1520 1520 1521 1521 1522 1522 1522 1523 1523 1524 1524 1525 1526 1527 1528 1529 1530
1473 1474 1475 1477 1478 1479 1481 1482 1484 1486 1487 1488 1490 1491 1492 1494 1495 1496 1497 1499 1500 1501 1502 1503 1504 1505 1505 1506 1506 1507 1507 1508 1509 1509 1510 1510 1511 1511 1512 1512 1512 1512 1513 1514 1515 1516 1517 1517 1517 1518 1518 1518 1518 1518 1519 1519 1520 1520 1521 1521 1522 1522 1522 1523 1523 1524 1525 1527 1527
1472 1473 1474 1476 1477 1478 1480 1482 1483 1485 1486 1487 1488 1490 1491 1493 1494 1496 1497 1498 1499 1500 1501 1502 1502 1503 1504 1505 1505 1506 1506 1507 1507 1508 1508 1509 1510 1510 1510 1511 1511 1512 1513 1513 1514 1515 1515 1515 1516 1516 1516 1516 1517 1517 1517 1517 1518 1518 1519 1519 1520 1520 1521 1521 1521 1522 1523 1524 1525
1471 1472 1474 1475 1476 1478 1479 1481 1482 1484 1485 1486 1487 1489 1491 1492 1493 1495 1496 1497 1498 1499 1500 1500 1501 1502 1503 1503 1504 1504 1505 1505 1506 1507 1507 1508 1508 1508 1509 1510 1510 1511 1512 1512 1512 1513 1513 1513 1513 1514 1514 1515 1515 1515 1516 1516 1517 1517 1517 1517 1518 1518 1519 1519 1519 1520 1520 1521 1522
1470 1472 1473 1474 1476 1477 1478 1480 1481 1483 1484 1485 1487 1488 1490 1491 1492 1494 1495 1496 1497 1498 1498 1499 1500 1501 1501 1502 1502 1503 1504 1504 1505 1505 1506 1506 1507 1507 1508 1508 1509 1510 1510 1511 1511 1511 1511 1512 1512 1512 1512 1513 1513 1513 1514 1514 1515 1515 1515 1516 1516 1517 1517 1517 1517 1517 1518 1519 1520
1469 1471 1472 1473 1475 1476 1477 1479 1480 1482 1483 1485 1486 1488 1489 1490 1492 1493 1494 1495 1496 1497 1497 1498 1499 1499 1500 1500 1501 1502 1503 1503 1504 1504 1505 1505 1505 1506 1507 1507 1508 1509 1509 1510 1510 1510 1510 1510 1511 1511 1511 1512 1512 1512 1512 1512 1513 1513 1514 1514 1514 1514 1515 1515 1515 1516 1516 1517 1517
1468 1469 1471 1472 1474 1475 1477 1478 1479 1481 1482 1484 1485 1487 1488 1489 1490 1492 1493 1494 1495 1496 1496 1497 1497 1498 1498 1499 1500 1501 1501 1502 1502 1503 1503 1504 1504 1505 1506 1506 1507 1507 1508 1509 1509 1509 1509 1509 1509 1509 1510 1510 1510 1510 1510 1511 1511 1511 1512 1512 1512 1512 1513 1513 1513 1514 1514 1514 1514
1467 1469 1470 1472 1473 1474 1476 1477 1478 1480 1481 1483 1484 1486 1487 1488 1489 1491 1492 1493 1494 1495 1495 1496 1496 1497 1497 1498 1499 1500 1500 1501 1501 1502 1502 1503 1503 1504 1504 1505 1506 1506 1507 1507 1507 1507 1507 1508 1508 1508 1508 1508 1508 1508 1508 1509 1509 1509 1510 1510 1510 1511 1511 1512 1512 1512 1512 1512 1512
1466 1468 1469 1471 1472 1473 1475 1476 1477 1479 1480 1482 1483 1485 1486 1487 1488 1490 1491 1492 1492 1493 1494 1494 1495 1496 1497 1497 1498 1498 1499 1500 1500 1501 1502 1502 1502 1503 1503 1504 1504 1505 1505 1505 1506 1506 1506 1506 1506 1506 1506 1506 1506 1506 1507 1507 1507 1508 1508 1508 1509 1509 1510 1510 1510 1511 1511 1511 1510
1465 1467 1468 1470 1471 1472 1474 1475 1477 1478 1479 1481 1482 1484 1485 1486 1487 1489 1490 1491 1491 1492 1493 1493 1494 1495 1496 1496 1497 1497 1498 1499 1499 1500 1500 1501 1501 1502 1502 1503 1503 1503 1503 1504 1504 1505 1505 1505 1505 1505 1504 1504 1504 1504 1505 1505 1506 1506 1506 1507 1507 1508 1508 1508 1509 1509 1509 1509 1509
1464 1466 1467 1469 1470 1472 1473 1474 1476 1477 1478 1480 1481 1483 1484 1486 1487 1488 1488 1489 1490 1491 1492 1492 1493 1494 1494 1495 1496 1497 1497 1497 1498 1498 1499 1500 1500 1501 1501 1502 1502 1502 1502 1503 1503 1503 1504 1504 1504 1503 1503 1503 1502 1502 1503 1503 1504 1504 1504 1505 1506 1506 1507 1507 1507 1508 1508 1507 1507
1463 1465 1466 1467 1469 1470 1472 1473 1475 1476 1477 1479 1480 1482 1483 1484 1486 1487 1487 1488 1489 1490 1491 1492 1492 1493 1493 1494 1495 1495 1495 1496 1497 1497 1498 1499 1499 1500 1500 1500 1501 1501 1502 1502 1502 1502 1502 1503 1502 1502 1502 1502 1501 1501 1501 1502 1502 1502 1502 1503 1503 1504 1505 1505 1506 1506 1506 1506 1506
1462 1464 1465 1467 1468 1469 1471 1472 1474 1475 1477 1478 1479 1481 1482 1483 1484 1486 1487 1487 1488 1489 1490 1491 1491 1492 1492 1493 1493 1494 1495 1495 1496 1497 1497 1498 1498 1498 1498 1499 1499 1500 1500 1501 1501 1501 1501 1501 1501 1501 1501 1501 1500 1500 1500 1500 1500 1501 1501 1501 1502 1502 1502 1503 1504 1504 1505 1505 1505
1462 1463 1464 1466 1467 1469 1470 1472 1473 1474 1476 1477 1478 1480 1481 1482 1483 1485 1486 1487 1487 1488 1489 1490 1490 1491 1491 1492 1493 1494 1494 1495 1495 1496 1496 1497 1497 1497 1497 1498 1498 1499 1499 1499 1500 1500 1500 1500 1500 1500 1500 1499 1499 1499 1499 1499 1499 1499 1499 1499 1500 1500 1501 1502 1502 1502 1503 1503 1503
1461 1462 1464 1465 1467 1468 1470 1471 1472 1474 1475 1477 1478 1479 1480 1482 1483 1484 1485 1486 1487 1487 1488 1488 1489 1490 1491 1492 1492 1493 1493 1494 1494 1494 1495 1495 1496 1496 1497 1497 1498 1498 1498 1498 1498 1498 1498 1498 1498 1498 1498 1498 1498 1498 1498 1498 1498 1498 1498 1498 1498 1499 1499 1500 1500 1501 1501 1501 1502
1461 1462 1463 1465 1466 1467 1469 1470 1472 1473 1474 1476 1477 1478 1480 1481 1482 1483 1484 1485 1486 1486 1487 1487 1488 1489 1490 1491 1492 1492 1492 1492 1492 1493 1494 1494 1495 1496 1496 1497 1497 1497 1497 1497 1497 1497 1497 1497 1497 1497 1497 1497 1497 1497 1497 1497 1497 1497 1497 1497 1497 1497 1498 1498 1498 1499 1499 1500 1500
1460 1462 1463 1464 1466 1467 1468 1470 1471 1472 1474 1475 1476 1477 1479 1480 1481 1482 1483 1484 1484 1485 1486 1487 1488 1489 1490 1490 1491 1491 1491 1492 1492 1492 1493 1494 1494 1495 1495 1495 1495 1495 1495 1495 1495 1495 1495 1495 1496 1496 1496 1496 1496 1496 1496 1496 1496 1496 1496 1496 1496 1496 1496 1496 1497 1497 1497 1498 1498
1460 1462 1463 1464 1465 1467 1468 1469 1471 1472 1473 1474 1476 1477 1478 1479 1480 1481 1482 1483 1483 1484 1485 1486 1487 1488 1489 1489 1489 1490 1490 1491 1491 1492 1492 1493 1493 1493 1493 1493 1493 1493 1493 1493 1494 1494 1494 1494 1494 1494 1494 1494 1494 1494 1494 1494 1494 1494 1494 1494 1494 1494 1494 1495 1495 1496 1496 1497 1497
1460 1461 1462 1464 1465 1466 1467 1469 1470 1471 1472 1474 1475 1476 1477 1478 1479 1480 1481 1482 1483 1484 1485 1486 1487 1487 1488 1488 1488 1489 1489 1490 1490 1491 1492 1492 1492 1492 1492 1492 1492 1492 1492 1492 1492 1493 1493 1493 1492 1492 1492 1492 1492 1492 1492 1493 1493 1493 1493 1493 1493 1493 1493 1493 1494 1494 1495 1496 1496
1459 1461 1462 1463 1464 1466 1467 1468 1469 1471 1472 1473 1474 1475 1476 1477 1478 1479 1480 1481 1482 1483 1484 1485 1486 1486 1487 1487 1487 1488 1488 1489 1489 1490 1490 1490 1490 1490 1490 1491 1491 1491 1491 1491 1491 1491 1492 1492 1491 1491 1491 1491 1491 1491 1492 1492 1492 1492 1492 1492 1492 1492 1492 1492 1493 1493 1494 1495 1496
1459 1460 1462 1463 1464 1465 1467 1468 1469 1470 1471 1472 1473 1474 1475 1476 1477 1478 1479 1480 1481 1482 1483 1484 1484 1485 1486 1486 1486 1487 1487 1488 1488 1489 1489 1489 1489 1489 1489 1489 1489 1489 1489 1489 1490 1490 1490 1490 1490 1490 1490 1490 1490 1490 1490 1491 1491 1491 1491 1491 1491 1491 1491 1492 1492 1493 1494 1495 1496
1459 1460 1461 1462 1463 1465 1466 1467 1468 1469 1470 1471 1472 1473 1474 1475 1476 1477 1479 1480 1481 1482 1482 1482 1483 1484 1484 1485 1485 1486 1486 1487 1487 1487 1487 1488 1488 1488 1488 1488 1488 1488 1488 1488 1488 1489 1489 1489 1489 1489 1489 1489 1489 1489 1489 1490 1490 1490 1490 1490 1490 1490 1490 1491 1492 1492 1493 1494 1496
1458 1459 1461 1462 1463 1464 1465 1467 1467 1469 1470 1471 1472 1472 1474 1475 1476 1477 1478 1479 1480 1480 1481 1481 1482 1482 1483 1483 1484 1484 1485 1486 1486 1486 1486 1486 1487 1487 1487 1487 1487 1487 1487 1487 1487 1488 1488 1488 1488 1488 1488 1488 1488 1488 1489 1489 1489 1489 1489 1489 1489 1490 1490 1491 1492 1492 1493 1494 1495
1458 1459 1460 1461 1462 1463 1465 1466 1467 1468 1469 1470 1471 1472 1473 1474 1475 1476 1477 1478 1478 1479 1480 1480 1481 1482 1482 1482 1483 1483 1484 1484 1485 1485 1485 1485 1485 1485 1486 1486 1486 1486 1486 1486 1486 1487 1487 1487 1487 1487 1488 1488 1488 1488 1488 1488 1488 1488 1488 1488 1489 1489 1490 1490 1491 1492 1493 1494 1495
1457 1458 1460 1461 1462 1463 1464 1465 1466 1467 1468 1469 1471 1472 1472 1473 1474 1475 1476 1477 1477 1478 1479 1479 1480 1480 1481 1482 1482 1482 1483 1483 1483 1483 1484 1484 1484 1484 1484 1484 1484 1484 1485 1485 1485 1485 1486 1486 1486 1487 1487 1487 1487 1487 1487 1487 1487 1488 1488 1488 1488 1489 1489 1490 1491 1492 1493 1494 1495
1457 1458 1459 1460 1462 1462 1464 1465 1466 1467 1468 1469 1470 1471 1472 1473 1473 1474 1475 1476 1477 1477 1478 1478 1479 1479 1480 1480 1481 1481 1482 1482 1482 1482 1483 1483 1483 1483 1483 1483 1483 1483 1484 1484 1484 1484 1485 1485 1486 1486 1487 1487 1487 1486 1486 1487 1487 1487 1487 1487 1488 1488 1489 1490 1491 1492 1493 1493 1494
1457 1457 1459 1460 1461 1462 1463 1464 1465 1466 1467 1468 1469 1470 1471 1472 1473 1473 1474 1475 1476 1476 1477 1477 1478 1478 1479 1479 1480 1480 1480 1481 1481 1481 1482 1482 1482 1482 1482 1482 1482 1482 1482 1483 1483 1483 1484 1484 1485 1485 1486 1486 1486 1486 1486 1486 1486 1486 1487 1487 1487 1488 1489 1490 1491 1491 1492 1493 1493
1456 1457 1458 1459 1461 1462 1463 1464 1465 1466 1467 1467 1468 1469 1470 1471 1472 1472 1473 1474 1475 1475 1476 1477 1477 1477 1478 1478 1479 1479 1479 1480 1480 1480 1481 1481 1482 1482 1482 1482 1482 1482 1482 1482 1482 1483 1483 1484 1484 1485 1485 1485 1485 1485 1485 1485 1485 1486 1486 1487 1487 1488 1488 1489 1490 1491 1491 1492 1493
1456 1457 1458 1459 1460 1461 1462 1463 1464 1465 1466 1467 1468 1469 1469 1470 1471 1472 1472 1473 1474 1475 1475 1476 1476 1477 1477 1478 1478 1478 1479 1479 1479 1479 1480 1480 1481 1481 1481 1481 1481 1481 1481 1481 1482 1482 1483 1483 1483 1484 1484 1485 1485 1484 1484 1485 1485 1485 1486 1487 1487 1488 1488 1489 1489 1490 1491 1491 1492
1455 1457 1457 1459 1460 1461 1462 1462 1463 1464 1465 1466 1467 1468 1469 1470 1470 1471 1472 1472 1473 1474 1474 1475 1476 1476 1477 1477 1477 1478 1478 1478 1478 1479 1479 1479 1479 1480 1480 1480 1480 1480 1480 1481 1481 1482 1482 1482 1483 1483 1484 1484 1484 1484 1484 1484 1485 1485 1486 1487 1487 1487 1488 1488 1489 1489 1490 1491 1491
1455 1456 1457 1458 1459 1460 1461 1462 1463 1464 1465 1466 1467 1467 1468 1469 1470 1471 1471 1472 1472 1473 1474 1474 1475 1475 1476 1476 1477 1477 1477 1477 1478 1478 1478 1478 1478 1479 1479 1479 1479 1479 1480 1480 1481 1481 1482 1482 1482 1483 1483 1483 1483 1483 1484 1484 1485 1485 1486 1486 1487 1487 1488 1488 1489 1489 1490 1490 1491
1455 1456 1457 1457 1459 1460 1461 1462 1462 1463 1464 1465 1466 1467 1467 1468 1469 1470 1471 1471 1472 1472 1473 1474 1474 1475 1475 1475 1476 1476 1476 1477 1477 1477 1477 1478 1478 1478 1478 1478 1479 1479 1479 1480 1480 1481 1481 1481 1482 1482 1482 1483 1483 1483 1483 1484 1484 1485 1486 1486 1487 1487 1487 1488 1489 1489 1490 1490 1491
1454 1455 1456 1457 1458 1459 1460 1461 1462 1463 1464 1465 1465 1466 1467 1468 1468 1469 1470 1471 1471 1472 1472 1473 1473 1474 1474 1475 1475 1475 1476 1476 1476 1477 1477 1477 1477 1477 1477 1478 1478 1478 1479 1479 1480 1480 1480 1481 1481 1482 1482 1482 1482 1483 1483 1484 1484 1485 1485 1486 1486 1487 1487 1488 1488 1489 1489 1489 1490
1454 1455 1456 1457 1458 1459 1460 1461 1462 1462 1463 1464 1465 1466 1467 1467 1468 1469 1470 1470 1471 1471 1472 1472 1472 1473 1473 1474 1474 1475 1475 1475 1476 1476 1476 1476 1477 1477 1477 1477 1477 1478 1478 1479 1479 1480 1480 1480 1481 1481 1482 1482 1482 1482 1483 1483 1484 1485 1485 1486 1486 1487 1487 1487 1488 1488 1488 1488 1489
1453 1454 1456 1457 1457 1458 1459 1460 1461 1462 1463 1464 1465 1465 1466 1467 1468 1468 1469 1470 1470 1471 1471 1472 1472 1472 1473 1473 1474 1474 1474 1475 1475 1475 1475 1476 1476 1476 1477 1477 1477 1477 1478 1478 1479 1479 1479 1480 1480 1481 1482 1482 1482 1482 1483 1483 1484 1484 1485 1485 1486 1486 1486 1487 1487 1487 1487 1488 1488
1453 1454 1455 1456 1457 1458 1459 1460 1461 1462 1463 1463 1464 1465 1466 1467 1467 1468 1469 1469 1470 1470 1471 1471 1472 1472 1472 1473 1473 1473 1474 1474 1474 1474 1475 1475 1475 1476 1476 1477 1477 1477 1478 1478 1478 1479 1479 1480 1480 1481 1481 1482 1482 1482 1482 1483 1483 1484 1484 1485 1485 1485 1486 1486 1486 1487 1487 1487 1487
1453 1454 1455 1456 1457 1458 1459 1460 1461 1462 1462 1463 1464 1465 1466 1466 1467 1467 1468 1469 1469 1470 1470 1471 1471 1471 1472 1472 1472 1473 1473 1473 1473 1474 1474 1475 1475 1476 1476 1477 1477 1477 1477 1478 1478 1479 1479 1479 1480 1480 1481 1481 1482 1482 1482 1483 1483 1483 1484 1484 1484 1485 1485 1485 1486 1486 1486 1486 1486